QPF
0.00 0.00 0.00 0.00 0.00 0.00 0.00 0.00 0.00 0.00 0.00 0.00 0.01 0.01 0.00 0.00 0.01 0.02 0.00 0.00 0.00 0.00 0.00 0.00 0.00 0.00 0.00 0.00 0.00 0.00 0.00 0.00 0.00
0.00 0.00 0.00 0.00 0.00 0.00 0.00 0.00 0.00 0.00 0.00 0.00 0.00 0.00 0.00 0.00 0.00 0.00 0.00 0.00 0.00 0.00 0.00 0.00 0.00 0.00 0.00 0.00 0.00 0.00 0.00 0.00 0.00
0.00 0.00 0.00 0.00 0.00 0.00 0.00 0.00 0.00 0.00 0.00 0.00 0.00 0.00 0.00 0.00 0.00 0.00 0.00 0.00 0.00 0.00 0.00 0.00 0.00 0.00 0.00 0.00 0.00 0.00 0.00 0.00 0.00
0.00 0.00 0.00 0.00 0.00 0.00 0.00 0.00 0.00 0.00 0.00 0.00 0.00 0.00 0.00 0.00 0.00 0.00 0.00 0.00 0.00 0.00 0.00 0.00 0.00 0.00 0.00 0.00 0.00 0.00 0.00 0.00 0.00
0.00 0.00 0.00 0.00 0.00 0.00 0.00 0.00 0.00 0.00 0.00 0.00 0.00 0.00 0.00 0.00 0.00 0.01 0.01 0.00 0.00 0.00 0.00 0.00 0.00 0.00 0.00 0.00 0.00 0.00 0.00 0.00 0.00
0.00 0.00 0.00 0.00 0.00 0.00 0.00 0.00 0.00 0.00 0.00 0.00 0.00 0.00 0.00 0.00 0.01 0.00 0.00 0.00 0.00 0.00 0.00 0.00 0.00 0.00 0.00 0.00 0.00 0.00 0.00 0.00 0.00
0.00 0.00 0.00 0.00 0.00 0.00 0.00 0.00 0.00 0.00 0.00 0.00 0.00 0.00 0.00 0.00 0.00 0.00 0.00 0.00 0.00 0.00 0.00 0.00 0.00 0.00 0.00 0.00 0.00 0.00 0.00 0.00 0.00
0.00 0.00 0.00 0.00 0.00 0.00 0.00 0.00 0.00 0.00 0.00 0.00 0.00 0.00 0.00 0.00 0.00 0.00 0.00 0.00 0.00 0.00 0.00 0.00 0.00 0.00 0.00 0.00 0.00 0.00 0.00 0.00 0.00
0.00 0.00 0.00 0.00 0.00 0.00 0.00 0.00 0.00 0.00 0.00 0.00 0.00 0.00 0.00 0.03 0.10 0.15 0.05 0.00 0.00 0.00 0.00 0.00 0.00 0.00 0.00 0.00 0.00 0.00 0.00 0.00 0.00
0.00 0.00 0.00 0.00 0.00 0.00 0.00 0.00 0.00 0.00 0.00 0.00 0.02 0.05 0.10 0.21 0.33 0.24 0.20 0.10 0.01 0.00 0.00 0.00 0.00 0.00 0.00 0.00 0.00 0.00 0.00 0.00 0.00
0.00 0.00 0.00 0.00 0.00 0.00 0.02 0.04 0.02 0.00 0.03 0.17 0.23 0.26 0.31 0.34 0.40 0.36 0.30 0.17 0.08 0.02 0.00 0.00 0.00 0.00 0.00 0.00 0.00 0.00 0.00 0.00 0.00
0.00 0.00 0.00 0.00 0.00 0.02 0.05 0.03 0.02 0.01 0.21 0.34 0.46 0.61 0.79 0.67 0.51 0.46 0.36 0.28 0.15 0.05 0.00 0.00 0.00 0.00 0.00 0.00 0.00 0.00 0.00 0.00 0.00
0.00 0.00 0.00 0.00 0.00 0.00 0.00 0.00 0.04 0.16 0.32 0.55 0.51 0.48 0.76 0.76 0.52 0.41 0.37 0.34 0.30 0.09 0.01 0.00 0.00 0.00 0.00 0.00 0.00 0.00 0.00 0.00 0.00
0.00 0.00 0.00 0.00 0.00 0.00 0.01 0.03 0.10 0.16 0.44 0.55 0.23 0.10 0.26 0.51 0.54 0.36 0.38 0.36 0.32 0.09 0.02 0.00 0.00 0.00 0.00 0.00 0.00 0.00 0.00 0.00 0.00
0.00 0.00 0.00 0.00 0.00 0.01 0.06 0.09 0.14 0.16 0.20 0.07 0.00 0.15 1.16 1.27 1.16 0.76 0.59 0.34 0.19 0.03 0.00 0.00 0.00 0.00 0.00 0.00 0.00 0.00 0.00 0.00 0.00
0.00 0.01 0.00 0.00 0.00 0.00 0.02 0.03 0.02 0.02 0.01 0.00 0.00 0.02 0.13 0.50 0.97 0.82 0.50 0.25 0.07 0.00 0.00 0.00 0.00 0.00 0.00 0.00 0.00 0.00 0.00 0.00 0.00
0.01 0.00 0.00 0.00 0.00 0.00 0.00 0.00 0.00 0.00 0.00 0.00 0.00 0.01 0.04 0.08 0.15 0.15 0.11 0.10 0.06 0.01 0.00 0.00 0.00 0.00 0.00 0.00 0.00 0.00 0.00 0.00 0.00
0.02 0.00 0.00 0.00 0.00 0.00 0.00 0.00 0.00 0.00 0.00 0.00 0.01 0.06 0.08 0.14 0.20 0.16 0.07 0.03 0.00 0.00 0.00 0.00 0.00 0.00 0.00 0.00 0.00 0.00 0.00 0.00 0.00
0.00 0.00 0.00 0.00 0.00 0.00 0.00 0.00 0.00 0.00 0.00 0.01 0.02 0.04 0.10 0.16 0.21 0.09 0.03 0.00 0.00 0.00 0.00 0.00 0.00 0.00 0.00 0.00 0.00 0.00 0.00 0.00 0.00
0.00 0.00 0.00 0.00 0.00 0.00 0.00 0.00 0.00 0.00 0.05 0.15 0.21 0.14 0.14 0.10 0.06 0.01 0.01 0.00 0.00 0.00 0.00 0.00 0.00 0.00 0.00 0.00 0.00 0.00 0.00 0.00 0.00
MSLP
1004.45 1005.02 1005.58 1006.29 1007.09 1008.16 1008.88 1009.59 1010.18 1010.65 1011.26 1011.85 1012.24 1012.66 1012.98 1013.05 1013.30 1013.82 1014.02 1014.21 1014.53 1014.92 1015.20 1015.43 1015.63 1015.76 1015.84 1016.05 1016.09 1016.04 1015.98 1016.22 1016.36
1004.24 1004.45 1005.07 1005.73 1006.45 1007.43 1008.23 1009.15 1009.68 1010.13 1010.83 1011.40 1011.84 1012.17 1012.50 1012.89 1013.16 1013.47 1013.82 1014.10 1014.44 1014.89 1015.25 1015.52 1015.81 1015.96 1016.29 1016.38 1016.42 1016.34 1016.46 1016.54 1016.62
1004.21 1004.65 1005.26 1006.04 1006.33 1007.10 1007.70 1008.41 1009.17 1009.83 1010.23 1010.66 1011.06 1011.63 1012.15 1012.61 1013.00 1013.40 1013.79 1014.19 1014.59 1014.96 1015.37 1015.61 1015.86 1016.23 1016.43 1016.49 1016.56 1016.68 1016.77 1016.86 1016.87
1004.07 1004.62 1005.14 1005.84 1006.38 1006.82 1007.37 1008.08 1008.57 1009.16 1009.71 1010.14 1010.60 1010.94 1011.55 1012.04 1012.53 1012.98 1013.51 1014.02 1014.46 1014.83 1015.14 1015.44 1015.83 1016.23 1016.57 1016.68 1016.73 1016.75 1016.73 1016.83 1016.85
1003.96 1004.22 1004.72 1005.55 1006.36 1006.60 1007.14 1007.73 1008.31 1009.00 1009.52 1009.96 1010.12 1010.38 1010.57 1011.02 1011.70 1012.23 1012.64 1012.95 1013.38 1013.89 1014.48 1015.02 1015.41 1015.61 1015.80 1016.01 1016.34 1016.49 1016.60 1016.81 1016.84
1004.00 1004.36 1005.23 1005.85 1006.44 1006.74 1006.98 1007.46 1008.11 1008.82 1009.32 1009.68 1009.98 1010.13 1010.64 1011.20 1011.62 1012.24 1012.61 1012.92 1013.47 1014.01 1014.43 1014.61 1014.95 1015.32 1015.73 1015.85 1016.05 1016.20 1016.33 1016.43 1016.58
1003.77 1004.53 1005.30 1005.76 1006.05 1006.27 1006.65 1007.27 1007.79 1008.14 1008.63 1009.19 1009.76 1010.34 1010.76 1010.91 1011.21 1011.28 1011.85 1012.72 1013.29 1013.62 1013.91 1014.31 1014.74 1015.09 1015.29 1015.57 1015.76 1015.99 1016.31 1016.51 1016.68
1004.34 1004.87 1005.25 1005.43 1005.50 1005.76 1006.47 1007.16 1007.49 1007.81 1008.15 1008.80 1009.41 1009.95 1010.42 1010.74 1011.11 1011.89 1012.24 1012.62 1012.84 1013.49 1014.07 1014.12 1014.34 1014.87 1015.42 1015.80 1016.06 1016.12 1016.26 1016.52 1016.62
1004.55 1004.68 1004.97 1005.26 1005.53 1005.84 1006.10 1006.63 1006.91 1008.41 1010.01 1010.68 1011.21 1011.26 1011.31 1011.45 1011.92 1012.38 1012.16 1012.56 1012.96 1013.00 1013.54 1014.34 1014.51 1014.60 1014.80 1015.28 1015.63 1015.88 1016.04 1016.34 1016.44
1005.45 1005.65 1005.64 1006.01 1006.32 1006.34 1007.11 1007.66 1008.05 1008.67 1009.25 1010.21 1010.68 1011.98 1012.56 1012.19 1012.52 1012.61 1012.69 1013.39 1013.53 1013.74 1013.32 1013.50 1014.35 1014.83 1015.02 1015.17 1015.49 1015.83 1016.05 1016.23 1016.32
1006.00 1006.20 1006.26 1006.00 1005.76 1006.01 1006.60 1007.45 1008.61 1009.29 1009.88 1010.35 1010.89 1012.06 1013.39 1013.47 1012.51 1012.86 1013.63 1013.92 1013.80 1013.75 1013.90 1013.75 1014.02 1014.37 1014.96 1015.31 1015.29 1015.78 1016.11 1016.39 1016.42
1006.95 1006.94 1006.81 1006.31 1005.86 1005.62 1005.96 1006.89 1008.12 1008.83 1009.58 1009.79 1010.53 1009.66 1011.03 1012.38 1012.49 1012.40 1012.70 1013.58 1014.92 1014.45 1014.40 1014.48 1013.92 1013.94 1014.54 1014.88 1015.26 1015.44 1015.78 1016.14 1016.77
1007.68 1007.51 1007.25 1006.67 1006.38 1006.75 1006.97 1007.77 1007.62 1007.96 1008.81 1008.89 1008.33 1009.74 1008.62 1010.59 1009.80 1010.85 1011.12 1012.08 1013.71 1014.07 1013.93 1014.15 1014.01 1013.95 1013.99 1014.50 1014.80 1015.09 1015.24 1015.89 1016.45
1008.14 1008.06 1007.91 1007.66 1007.48 1008.01 1008.38 1008.52 1008.67 1008.75 1009.16 1009.65 1009.69 1010.68 1010.51 1010.11 1009.15 1008.25 1007.82 1009.13 1012.35 1013.27 1013.31 1013.58 1013.72 1013.87 1014.07 1014.33 1014.61 1014.88 1015.06 1015.33 1016.27
1009.01 1009.04 1008.84 1008.68 1008.70 1008.82 1008.93 1008.99 1009.24 1010.02 1010.46 1010.87 1010.52 1010.21 1010.04 1009.21 1007.48 1006.98 1007.79 1009.13 1010.30 1012.80 1012.78 1013.34 1013.52 1013.85 1014.16 1014.33 1014.58 1014.86 1014.94 1015.21 1015.57
1009.52 1009.33 1009.20 1009.11 1009.18 1009.72 1009.96 1009.80 1009.83 1010.54 1011.26 1011.03 1010.31 1010.32 1010.24 1009.94 1009.39 1008.66 1009.38 1009.85 1011.58 1012.51 1012.43 1012.86 1013.38 1013.89 1014.26 1014.20 1014.44 1014.56 1014.50 1014.79 1014.90
1009.55 1009.60 1009.62 1009.67 1009.80 1010.12 1010.76 1010.55 1010.64 1011.03 1011.00 1010.66 1010.72 1010.49 1010.65 1010.71 1010.05 1010.50 1010.65 1011.05 1011.19 1011.52 1012.45 1012.81 1013.49 1013.85 1014.07 1014.18 1014.36 1014.40 1013.95 1014.18 1014.61
1010.29 1010.32 1010.36 1010.30 1010.60 1010.77 1011.09 1011.02 1010.90 1010.84 1010.83 1010.92 1010.91 1010.85 1010.94 1011.05 1010.94 1010.78 1010.85 1010.85 1011.07 1011.39 1012.02 1012.47 1012.89 1013.26 1013.84 1013.99 1014.16 1013.79 1013.67 1013.89 1014.32
1010.66 1010.81 1010.82 1010.79 1010.92 1011.01 1011.37 1011.37 1011.07 1010.86 1010.55 1010.60 1010.78 1010.92 1011.25 1011.32 1011.41 1011.43 1011.75 1011.95 1012.08 1012.12 1012.23 1012.54 1012.75 1013.03 1013.27 1013.55 1013.69 1013.41 1013.39 1013.44 1013.80
1010.95 1011.07 1011.18 1011.32 1011.65 1011.79 1011.90 1011.95 1011.55 1011.10 1010.80 1010.57 1010.70 1011.44 1011.46 1011.24 1011.41 1011.73 1011.99 1012.14 1012.29 1012.76 1012.65 1012.48 1012.75 1013.25 1013.37 1013.48 1013.59 1013.80 1013.91 1014.10 1014.01
Thickness
5845 5840 5838 5832 5825 5816 5810 5806 5800 5797 5789 5782 5780 5777 5775 5777 5775 5772 5771 5770 5767 5763 5761 5759 5758 5756 5755 5753 5753 5754 5755 5753 5751
5846 5845 5842 5838 5834 5824 5817 5810 5805 5802 5794 5788 5784 5781 5778 5776 5775 5773 5770 5769 5767 5763 5759 5757 5754 5752 5749 5748 5748 5749 5749 5747 5746
5847 5846 5843 5838 5836 5826 5823 5818 5812 5806 5802 5797 5792 5787 5781 5778 5775 5772 5770 5765 5761 5759 5755 5752 5750 5746 5745 5744 5744 5743 5742 5740 5741
5849 5846 5842 5838 5833 5829 5826 5821 5817 5811 5807 5804 5799 5797 5790 5785 5780 5777 5771 5766 5762 5759 5756 5753 5749 5745 5741 5740 5740 5739 5739 5738 5737
5851 5852 5848 5840 5831 5831 5827 5823 5819 5812 5809 5805 5805 5803 5802 5798 5791 5785 5782 5780 5775 5771 5764 5758 5753 5751 5749 5747 5743 5741 5739 5735 5735
5849 5849 5840 5834 5829 5829 5829 5825 5819 5814 5811 5807 5806 5804 5799 5793 5789 5783 5780 5777 5772 5766 5760 5759 5756 5751 5747 5746 5744 5741 5740 5738 5736
5848 5844 5836 5833 5832 5832 5830 5827 5823 5819 5814 5811 5804 5799 5796 5793 5790 5791 5785 5775 5769 5765 5762 5757 5752 5748 5745 5743 5742 5739 5735 5733 5730
5841 5836 5833 5833 5835 5837 5831 5825 5822 5820 5818 5812 5805 5798 5795 5791 5788 5779 5776 5772 5770 5761 5755 5755 5753 5745 5737 5734 5731 5731 5730 5726 5724
5836 5835 5835 5833 5834 5835 5832 5827 5824 5810 5793 5787 5783 5781 5777 5775 5768 5765 5768 5765 5762 5762 5756 5746 5744 5742 5739 5732 5728 5726 5725 5721 5719
5826 5827 5827 5825 5823 5824 5817 5812 5809 5800 5795 5785 5782 5767 5760 5762 5758 5752 5752 5748 5747 5745 5752 5750 5740 5734 5733 5730 5726 5722 5719 5716 5713
5817 5818 5819 5822 5825 5822 5817 5807 5796 5787 5778 5774 5768 5753 5736 5735 5746 5741 5733 5731 5732 5736 5737 5740 5737 5732 5725 5720 5720 5714 5710 5707 5705
5810 5811 5811 5815 5820 5820 5816 5805 5792 5782 5772 5768 5752 5750 5729 5714 5727 5727 5728 5719 5706 5714 5721 5723 5727 5728 5721 5717 5711 5709 5704 5700 5692
5803 5803 5804 5806 5804 5798 5794 5784 5785 5778 5768 5762 5754 5740 5742 5720 5736 5725 5727 5718 5703 5705 5712 5715 5718 5718 5718 5712 5708 5703 5699 5692 5686
5795 5793 5792 5792 5790 5783 5775 5770 5765 5760 5751 5739 5734 5717 5719 5717 5720 5722 5719 5719 5704 5691 5705 5709 5710 5710 5709 5705 5702 5696 5692 5690 5679
5773 5773 5775 5777 5771 5765 5760 5755 5749 5737 5726 5719 5719 5716 5714 5718 5723 5698 5682 5680 5706 5690 5700 5701 5702 5701 5699 5697 5694 5689 5686 5682 5678
5760 5763 5763 5763 5758 5747 5740 5735 5732 5719 5709 5707 5709 5703 5699 5700 5697 5691 5680 5680 5678 5686 5696 5696 5695 5691 5689 5689 5686 5683 5680 5676 5674
5753 5752 5752 5749 5743 5736 5723 5722 5717 5710 5708 5706 5699 5694 5690 5687 5693 5685 5685 5688 5692 5692 5688 5689 5686 5684 5681 5679 5677 5675 5676 5673 5666
5739 5739 5737 5735 5728 5722 5717 5714 5711 5707 5702 5696 5692 5688 5685 5683 5684 5686 5688 5688 5689 5688 5687 5686 5682 5680 5674 5672 5668 5670 5669 5665 5660
5731 5727 5724 5722 5719 5716 5708 5703 5704 5701 5697 5693 5685 5681 5680 5680 5678 5678 5678 5677 5678 5680 5682 5680 5678 5675 5674 5669 5664 5663 5662 5659 5654
5720 5719 5714 5709 5706 5703 5698 5693 5692 5692 5690 5686 5684 5678 5679 5682 5679 5675 5674 5673 5673 5669 5670 5668 5665 5662 5660 5657 5655 5652 5649 5645 5642